Location: Newark
(45.9456°N, 15.4064°E)
Time: 02:34:59
(UTC+00:00)

Vanguard 3 - Pass Details

Date: 29 January 2020
Orbit: 508 x 3263 km, 33.3° (Epoch: 25 February)

Event Time Altitude Azimuth Distance (km) Brightness Sun altitude
Rises 15:17:30 0° 232° (SW) 6,525 14.5 5.4°
Reaches altitude 10° 15:21:43 10° 227° (SW) 5,763 13.7 4.8°
Maximum altitude 15:39:14 48° 161° (SSE) 3,909 10.8 2.1°
Drops below altitude 10° 15:56:14 10° 96° (E) 5,629 10.9 -0.5°
Sets 16:00:16 0° 91° (E) 6,371 11.1 -1.1°
